,,,PA_Meas_PMT16A,,PR_Meas_QMR101_102,,RH_Meas_QMH101,,SR_Meas_QMS101,,TA_Meas_QMH101,,GenWind,,GenWind,
date,time,status,PA,status,PR,status,RH,status,SR,status,TA,status,DirAvg,status,SpdAvg,
2009-09-28, 00:00:04,VALID,1003.05,VALID,0,VALID,93.8047,VALID,0,VALID,22.8649,VALID,6,VALID,0.346094,
2009-09-28, 00:01:04,VALID,1003.06,VALID,0,VALID,93.8505,VALID,0,VALID,22.8649,VALID,6,VALID,0.342578,
2009-09-28, 00:02:04,VALID,1003.04,VALID,0,VALID,93.8886,VALID,0.100563,VALID,22.8649,VALID,6,VALID,0.346094,
2009-09-28, 00:03:04,VALID,1003.07,VALID,0,VALID,93.942,VALID,0,VALID,22.8438,VALID,6,VALID,0.372656,
2009-09-28, 00:04:04,VALID,1003.03,VALID,0,VALID,93.9725,VALID,0,VALID,22.8455,VALID,6,VALID,0.0703125,
2009-09-28, 00:05:04,VALID,1003.05,VALID,0,VALID,93.9954,VALID,0,VALID,22.8455,VALID,6,VALID,0.338281,
2009-09-28, 00:06:04,VALID,1003.08,VALID,0,VALID,93.9878,VALID,0.100563,VALID,22.8455,VALID,6,VALID,0.415625,
2009-09-28, 00:07:04,VALID,1003.05,VALID,0,VALID,94.0107,VALID,0,VALID,22.8455,VALID,6,VALID,0.355078,
2009-09-28, 00:08:04,VALID,1003.05,VALID,0,VALID,94.0412,VALID,0.100563,VALID,22.8455,VALID,6,VALID,0.401563,
2009-09-28, 00:09:04,VALID,1003.03,VALID,0,VALID,94.0259,VALID,0.100563,VALID,22.8243,VALID,6,VALID,0.328906,
2009-09-28, 00:10:04,VALID,1003.04,VALID,0,VALID,94.0488,VALID,0,VALID,22.8455,VALID,6,VALID,0.240234,
2009-09-28, 00:11:04,VALID,1003.01,VALID,0,VALID,94.0717,VALID,0.100563,VALID,22.826,VALID,6,VALID,0.319922,
2009-09-28, 00:12:04,VALID,1003.03,VALID,0,VALID,94.087,VALID,0.100563,VALID,22.8243,VALID,6,VALID,0.367969,
2009-09-28, 00:13:04,VALID,1003.03,VALID,0,VALID,94.087,VALID,0,VALID,22.826,VALID,6,VALID,0.486719,
2009-09-28, 00:14:04,VALID,1003.02,VALID,0,VALID,94.1175,VALID,0,VALID,22.8472,VALID,6,VALID,0.521094,
2009-09-28, 00:15:04,VALID,1003.05,VALID,0,VALID,94.1251,VALID,0,VALID,22.8278,VALID,6,VALID,0.539844,
2009-09-28, 00:16:04,VALID,1003.01,VALID,0,VALID,94.1099,VALID,0,VALID,22.8083,VALID,6,VALID,0.500391,
2009-09-28, 00:17:04,VALID,1002.98,VALID,0,VALID,94.1099,VALID,0,VALID,22.8066,VALID,6,VALID,0.544141,
2009-09-28, 00:18:04,VALID,1002.99,VALID,0,VALID,94.1251,VALID,0,VALID,22.8083,VALID,6,VALID,0.505859,
2009-09-28, 00:19:04,VALID,1002.99,VALID,0,VALID,94.1633,VALID,0,VALID,22.7888,VALID,6,VALID,0.537891,
2009-09-28, 00:20:04,VALID,1002.98,VALID,0,VALID,94.1709,VALID,0,VALID,22.8083,VALID,6,VALID,0.5125,
2009-09-28, 00:21:04,VALID,1002.96,VALID,0,VALID,94.1785,VALID,0,VALID,22.7888,VALID,6,VALID,0.501562,
2009-09-28, 00:22:04,VALID,1002.97,VALID,0,VALID,94.1404,VALID,0,VALID,22.7677,VALID,6,VALID,0.575781,
2009-09-28, 00:23:04,VALID,1002.97,VALID,0,VALID,94.1251,VALID,0,VALID,22.7499,VALID,6,VALID,0.480859,
2009-09-28, 00:24:04,VALID,1002.96,VALID,0,VALID,94.087,VALID,0,VALID,22.7499,VALID,6,VALID,0.496484,
2009-09-28, 00:25:04,VALID,1002.96,VALID,0,VALID,94.148,VALID,0,VALID,22.7499,VALID,6,VALID,0.440234,
2009-09-28, 00:26:04,VALID,1002.95,VALID,0,VALID,94.1938,VALID,0,VALID,22.7694,VALID,6,VALID,0.471484,
2009-09-28, 00:27:04,VALID,1002.92,VALID,0,VALID,94.2472,VALID,0,VALID,22.7482,VALID,6,VALID,0.382422,
2009-09-28, 00:28:04,VALID,1002.9,VALID,0,VALID,94.3158,VALID,0,VALID,22.7677,VALID,6,VALID,0.326953,
2009-09-28, 00:29:04,VALID,1002.9,VALID,0,VALID,94.3311,VALID,0,VALID,22.7465,VALID,6,VALID,0.297266,
2009-09-28, 00:30:04,VALID,1002.88,VALID,0,VALID,94.3464,VALID,0,VALID,22.727,VALID,6,VALID,0.490625,
2009-09-28, 00:31:04,VALID,1002.83,VALID,0,VALID,94.3769,VALID,0.100563,VALID,22.7482,VALID,6,VALID,0.432031,
2009-09-28, 00:32:04,VALID,1002.84,VALID,0,VALID,94.3845,VALID,0,VALID,22.7482,VALID,6,VALID,0.401953,
2009-09-28, 00:33:04,VALID,1002.8,VALID,0,VALID,94.3921,VALID,0,VALID,22.7482,VALID,6,VALID,0.45625,
2009-09-28, 00:34:04,VALID,1002.81,VALID,0,VALID,94.3998,VALID,0.100563,VALID,22.727,VALID,6,VALID,0.317969,
2009-09-28, 00:35:04,VALID,1002.8,VALID,0,VALID,94.4227,VALID,0,VALID,22.7287,VALID,6,VALID,0.272656,
2009-09-28, 00:36:04,VALID,1002.77,VALID,0,VALID,94.4227,VALID,0,VALID,22.7093,VALID,6,VALID,0.366797,
2009-09-28, 00:37:04,VALID,1002.76,VALID,0,VALID,94.4379,VALID,0.100563,VALID,22.6881,VALID,6,VALID,0.341406,
2009-09-28, 00:38:04,VALID,1002.76,VALID,0,VALID,94.4379,VALID,0,VALID,22.7093,VALID,6,VALID,0.294922,
2009-09-28, 00:39:04,VALID,1002.72,VALID,0,VALID,94.4761,VALID,0,VALID,22.7093,VALID,6,VALID,0.279297,
2009-09-28, 00:40:04,VALID,1002.68,VALID,0,VALID,94.5142,VALID,0,VALID,22.7093,VALID,6,VALID,0.395312,
2009-09-28, 00:41:04,VALID,1002.72,VALID,0,VALID,94.5142,VALID,0,VALID,22.6881,VALID,6,VALID,0.475,
2009-09-28, 00:42:04,VALID,1002.7,VALID,0,VALID,94.5066,VALID,0,VALID,22.6915,VALID,6,VALID,0.405859,
2009-09-28, 00:43:04,VALID,1002.66,VALID,0,VALID,94.4684,VALID,0,VALID,22.6898,VALID,6,VALID,0.475391,
2009-09-28, 00:44:04,VALID,1002.67,VALID,0,VALID,94.4761,VALID,0,VALID,22.711,VALID,6,VALID,0.500391,
2009-09-28, 00:45:04,VALID,1002.65,VALID,0,VALID,94.4989,VALID,0,VALID,22.6881,VALID,6,VALID,0.522656,
2009-09-28, 00:46:04,VALID,1002.64,VALID,0,VALID,94.5142,VALID,0,VALID,22.711,VALID,6,VALID,0.541016,
2009-09-28, 00:47:04,VALID,1002.62,VALID,0,VALID,94.5066,VALID,0,VALID,22.6898,VALID,6,VALID,0.585156,
2009-09-28, 00:48:04,VALID,1002.59,VALID,0,VALID,94.5218,VALID,0,VALID,22.6898,VALID,6,VALID,0.588672,
2009-09-28, 00:49:04,VALID,1002.59,VALID,0,VALID,94.5066,VALID,0,VALID,22.6704,VALID,6,VALID,0.474219,
2009-09-28, 00:50:04,VALID,1002.57,VALID,0,VALID,94.4837,VALID,0,VALID,22.6509,VALID,6,VALID,0.463281,
2009-09-28, 00:51:04,VALID,1002.53,VALID,0,VALID,94.5066,VALID,0,VALID,22.6721,VALID,6,VALID,0.399609,
2009-09-28, 00:52:04,VALID,1002.56,VALID,0,VALID,94.5295,VALID,0,VALID,22.6898,VALID,6,VALID,0.563281,
2009-09-28, 00:53:04,VALID,1002.53,VALID,0,VALID,94.5676,VALID,0,VALID,22.6898,VALID,6,VALID,0.478125,
2009-09-28, 00:54:04,VALID,1002.56,VALID,0,VALID,94.5676,VALID,0,VALID,22.6898,VALID,6,VALID,0.524609,
2009-09-28, 00:55:04,VALID,1002.58,VALID,0,VALID,94.56,VALID,0,VALID,22.711,VALID,6,VALID,0.457031,
2009-09-28, 00:56:04,VALID,1002.55,VALID,0,VALID,94.5371,VALID,0,VALID,22.6915,VALID,6,VALID,0.532031,
2009-09-28, 00:57:04,VALID,1002.59,VALID,0,VALID,94.5142,VALID,0.100563,VALID,22.6686,VALID,6,VALID,0.400391,
2009-09-28, 00:58:04,VALID,1002.59,VALID,0,VALID,94.5142,VALID,0,VALID,22.6686,VALID,6,VALID,0.438281,
2009-09-28, 00:59:04,VALID,1002.59,VALID,0,VALID,94.5066,VALID,0,VALID,22.6686,VALID,6,VALID,0.265625,
2009-09-28, 01:00:04,VALID,1002.61,VALID,0,VALID,94.4913,VALID,0.100563,VALID,22.6686,VALID,6,VALID,0.48125,
2009-09-28, 01:01:04,VALID,1002.59,VALID,0,VALID,94.5066,VALID,0.100563,VALID,22.6686,VALID,6,VALID,0.329688,
2009-09-28, 01:02:04,VALID,1002.58,VALID,0,VALID,94.5142,VALID,0,VALID,22.6704,VALID,6,VALID,0.323438,
2009-09-28, 01:03:04,VALID,1002.58,VALID,0,VALID,94.4989,VALID,0,VALID,22.6492,VALID,6,VALID,0.302344,
2009-09-28, 01:04:04,VALID,1002.6,VALID,0,VALID,94.4913,VALID,0,VALID,22.6297,VALID,6,VALID,0.319922,
2009-09-28, 01:05:04,VALID,1002.55,VALID,0,VALID,94.4913,VALID,0.100563,VALID,22.6509,VALID,6,VALID,0.287891,
2009-09-28, 01:06:04,VALID,1002.55,VALID,0,VALID,94.5142,VALID,0,VALID,22.6297,VALID,6,VALID,0.26875,
2009-09-28, 01:07:04,VALID,1002.53,VALID,0,VALID,94.5142,VALID,0,VALID,22.6315,VALID,6,VALID,0.460156,
2009-09-28, 01:08:04,VALID,1002.55,VALID,0,VALID,94.5523,VALID,0,VALID,22.6297,VALID,6,VALID,0.471484,
2009-09-28, 01:09:04,VALID,1002.54,VALID,0,VALID,94.56,VALID,0.100563,VALID,22.6297,VALID,6,VALID,0.439453,
2009-09-28, 01:10:04,VALID,1002.53,VALID,0,VALID,94.5829,VALID,0.100563,VALID,22.6297,VALID,6,VALID,0.570703,
2009-09-28, 01:11:04,VALID,1002.57,VALID,0,VALID,94.6286,VALID,0.100563,VALID,22.6297,VALID,6,VALID,0.528516,
2009-09-28, 01:12:04,VALID,1002.57,VALID,0,VALID,94.6515,VALID,0,VALID,22.6509,VALID,6,VALID,0.489062,
2009-09-28, 01:13:04,VALID,1002.59,VALID,0,VALID,94.6668,VALID,0,VALID,22.6103,VALID,6,VALID,0.414063,
2009-09-28, 01:14:04,VALID,1002.55,VALID,0,VALID,94.6591,VALID,0,VALID,22.6086,VALID,6,VALID,0.308594,
2009-09-28, 01:15:04,VALID,1002.56,VALID,0,VALID,94.6591,VALID,0,VALID,22.6103,VALID,6,VALID,0.168359,
2009-09-28, 01:16:04,VALID,1002.57,VALID,0,VALID,94.6591,VALID,0,VALID,22.6315,VALID,6,VALID,0.0671875,
2009-09-28, 01:17:04,VALID,1002.55,VALID,0,VALID,94.6591,VALID,0,VALID,22.6315,VALID,6,VALID,0.0453125,
2009-09-28, 01:18:04,VALID,1002.52,VALID,0,VALID,94.6744,VALID,0,VALID,22.6103,VALID,6,VALID,0.292578,
2009-09-28, 01:19:04,VALID,1002.53,VALID,0,VALID,94.6897,VALID,0,VALID,22.6103,VALID,6,VALID,0.285547,
2009-09-28, 01:20:04,VALID,1002.54,VALID,0,VALID,94.6897,VALID,0.100563,VALID,22.6315,VALID,6,VALID,0.298828,
2009-09-28, 01:21:04,VALID,1002.55,VALID,0,VALID,94.7049,VALID,0,VALID,22.6103,VALID,6,VALID,0.134766,
2009-09-28, 01:22:04,VALID,1002.5,VALID,0,VALID,94.6668,VALID,0.100563,VALID,22.5908,VALID,6,VALID,0.284766,
2009-09-28, 01:23:04,VALID,1002.5,VALID,0,VALID,94.6668,VALID,0,VALID,22.5714,VALID,6,VALID,0.261719,
2009-09-28, 01:24:04,VALID,1002.46,VALID,0,VALID,94.6668,VALID,0,VALID,22.5714,VALID,6,VALID,0.119531,
2009-09-28, 01:25:04,VALID,1002.46,VALID,0,VALID,94.6897,VALID,0,VALID,22.5714,VALID,6,VALID,0,
2009-09-28, 01:26:04,VALID,1002.45,VALID,0,VALID,94.7049,VALID,0.100563,VALID,22.5714,VALID,6,VALID,0,
2009-09-28, 01:27:04,VALID,1002.45,VALID,0,VALID,94.6973,VALID,0.100563,VALID,22.5925,VALID,6,VALID,0.0175781,
2009-09-28, 01:28:04,VALID,1002.44,VALID,0,VALID,94.7278,VALID,0,VALID,22.5925,VALID,6,VALID,0.164453,
2009-09-28, 01:29:04,VALID,1002.42,VALID,0,VALID,94.7736,VALID,0,VALID,22.5714,VALID,6,VALID,0.248437,
2009-09-28, 01:30:04,VALID,1002.45,VALID,0,VALID,94.8041,VALID,0.100563,VALID,22.612,VALID,6,VALID,0.515234,
2009-09-28, 01:31:04,VALID,1002.47,VALID,0,VALID,94.8422,VALID,0,VALID,22.6103,VALID,6,VALID,0.4375,
2009-09-28, 01:32:04,VALID,1002.49,VALID,0,VALID,94.8728,VALID,0,VALID,22.6103,VALID,6,VALID,0.410156,
2009-09-28, 01:33:04,VALID,1002.47,VALID,0,VALID,94.8804,VALID,0.100563,VALID,22.6509,VALID,6,VALID,0.427734,
2009-09-28, 01:34:04,VALID,1002.48,VALID,0,VALID,94.9033,VALID,0,VALID,22.6509,VALID,6,VALID,0.294922,
2009-09-28, 01:35:04,VALID,1002.49,VALID,0,VALID,94.8956,VALID,0,VALID,22.6315,VALID,6,VALID,0.282422,
2009-09-28, 01:36:04,VALID,1002.45,VALID,0,VALID,94.8728,VALID,0,VALID,22.5908,VALID,6,VALID,0.310547,
2009-09-28, 01:37:04,VALID,1002.43,VALID,0,VALID,94.8499,VALID,0.100563,VALID,22.5925,VALID,6,VALID,0.378906,
2009-09-28, 01:38:04,VALID,1002.43,VALID,0,VALID,94.8499,VALID,0,VALID,22.5925,VALID,6,VALID,0.322656,
2009-09-28, 01:39:04,VALID,1002.43,VALID,0,VALID,94.8422,VALID,0,VALID,22.5925,VALID,6,VALID,0.251563,
2009-09-28, 01:40:04,VALID,1002.41,VALID,0,VALID,94.8346,VALID,0.100563,VALID,22.5519,VALID,6,VALID,0.287109,
2009-09-28, 01:41:04,VALID,1002.44,VALID,0,VALID,94.8041,VALID,0,VALID,22.5325,VALID,6,VALID,0.225781,
2009-09-28, 01:42:04,VALID,1002.44,VALID,0,VALID,94.8194,VALID,0,VALID,22.5731,VALID,6,VALID,0.127734,
2009-09-28, 01:43:04,VALID,1002.42,VALID,0,VALID,94.8117,VALID,0,VALID,22.5536,VALID,6,VALID,0.210156,
2009-09-28, 01:44:04,VALID,1002.43,VALID,0,VALID,94.8422,VALID,0,VALID,22.5536,VALID,6,VALID,0.405859,
2009-09-28, 01:45:04,VALID,1002.43,VALID,0,VALID,94.8956,VALID,0,VALID,22.5925,VALID,6,VALID,0.348828,
2009-09-28, 01:46:04,VALID,1002.38,VALID,0,VALID,94.9109,VALID,0,VALID,22.5925,VALID,6,VALID,0,
2009-09-28, 01:47:04,VALID,1002.39,VALID,0,VALID,94.9109,VALID,0,VALID,22.5925,VALID,6,VALID,0,
2009-09-28, 01:48:04,VALID,1002.38,VALID,0,VALID,94.9109,VALID,0,VALID,22.5714,VALID,6,VALID,0,
2009-09-28, 01:49:04,VALID,1002.4,VALID,0,VALID,94.9109,VALID,0,VALID,22.6137,VALID,6,VALID,0,
2009-09-28, 01:50:04,VALID,1002.37,VALID,0,VALID,94.9414,VALID,0,VALID,22.5925,VALID,6,VALID,0,
2009-09-28, 01:51:04,VALID,1002.4,VALID,0,VALID,94.9262,VALID,0,VALID,22.612,VALID,6,VALID,0,
2009-09-28, 01:52:04,VALID,1002.41,VALID,0,VALID,94.949,VALID,0,VALID,22.5925,VALID,6,VALID,0,
2009-09-28, 01:53:04,VALID,1002.4,VALID,0,VALID,94.9262,VALID,0,VALID,22.5925,VALID,6,VALID,0.577344,
2009-09-28, 01:54:04,VALID,1002.36,VALID,0,VALID,94.9414,VALID,0,VALID,22.5925,VALID,6,VALID,0.488281,
2009-09-28, 01:55:04,VALID,1002.38,VALID,0,VALID,94.9185,VALID,0,VALID,22.6137,VALID,6,VALID,0.446484,
2009-09-28, 01:56:04,VALID,1002.33,VALID,0,VALID,94.9033,VALID,0,VALID,22.5731,VALID,6,VALID,0.505469,
2009-09-28, 01:57:04,VALID,1002.32,VALID,0,VALID,94.8956,VALID,0,VALID,22.5731,VALID,6,VALID,0.404687,
2009-09-28, 01:58:04,VALID,1002.34,VALID,0,VALID,94.8804,VALID,0,VALID,22.5748,VALID,6,VALID,0.331641,
2009-09-28, 01:59:04,VALID,1002.33,VALID,0,VALID,94.8804,VALID,0,VALID,22.5342,VALID,6,VALID,0.3,
2009-09-28, 02:00:04,VALID,1002.29,VALID,0,VALID,94.8804,VALID,0,VALID,22.5342,VALID,6,VALID,0.383984,
2009-09-28, 02:01:04,VALID,1002.3,VALID,0,VALID,94.888,VALID,0,VALID,22.5325,VALID,6,VALID,0.360938,
2009-09-28, 02:02:04,VALID,1002.3,VALID,0,VALID,94.9109,VALID,0,VALID,22.5536,VALID,6,VALID,0.410547,
2009-09-28, 02:03:04,VALID,1002.32,VALID,0,VALID,94.9338,VALID,0.100563,VALID,22.5536,VALID,6,VALID,0.300391,
2009-09-28, 02:04:04,VALID,1002.31,VALID,0,VALID,94.9796,VALID,0,VALID,22.5731,VALID,6,VALID,0.316016,
2009-09-28, 02:05:04,VALID,1002.31,VALID,0,VALID,95.0024,VALID,0.100563,VALID,22.5731,VALID,6,VALID,0.346484,
2009-09-28, 02:06:04,VALID,1002.26,VALID,0,VALID,94.9872,VALID,0,VALID,22.5536,VALID,6,VALID,0.345703,
2009-09-28, 02:07:04,VALID,1002.24,VALID,0,VALID,95.0024,VALID,0.100563,VALID,22.5731,VALID,6,VALID,0.329297,
2009-09-28, 02:08:04,VALID,1002.25,VALID,0,VALID,95.0177,VALID,0,VALID,22.5731,VALID,6,VALID,0.296094,
2009-09-28, 02:09:04,VALID,1002.22,VALID,0,VALID,95.0253,VALID,0,VALID,22.5731,VALID,6,VALID,0.370313,
2009-09-28, 02:10:04,VALID,1002.23,VALID,0,VALID,95.0406,VALID,0.100563,VALID,22.5731,VALID,6,VALID,0.484375,
2009-09-28, 02:11:04,VALID,1002.22,VALID,0,VALID,95.0253,VALID,0,VALID,22.5925,VALID,6,VALID,0.555859,
2009-09-28, 02:12:04,VALID,1002.19,VALID,0,VALID,95.0482,VALID,0,VALID,22.5714,VALID,6,VALID,0.687109,
2009-09-28, 02:13:04,VALID,1002.21,VALID,0,VALID,95.0864,VALID,0,VALID,22.5925,VALID,6,VALID,0.730469,
2009-09-28, 02:14:04,VALID,1002.18,VALID,0,VALID,95.0711,VALID,0,VALID,22.5925,VALID,6,VALID,0.668359,
2009-09-28, 02:15:04,VALID,1002.18,VALID,0,VALID,95.1016,VALID,0,VALID,22.5925,VALID,6,VALID,0.546484,
2009-09-28, 02:16:04,VALID,1002.2,VALID,0,VALID,95.094,VALID,0.100563,VALID,22.612,VALID,6,VALID,0.488281,
2009-09-28, 02:17:04,VALID,1002.18,VALID,0,VALID,95.094,VALID,0,VALID,22.5908,VALID,6,VALID,0.473047,
2009-09-28, 02:18:04,VALID,1002.14,VALID,0,VALID,95.0787,VALID,0,VALID,22.5925,VALID,6,VALID,0.405078,
2009-09-28, 02:19:04,VALID,1002.14,VALID,0,VALID,95.1016,VALID,0,VALID,22.612,VALID,6,VALID,0.544141,
2009-09-28, 02:20:04,VALID,1002.11,VALID,0,VALID,95.1093,VALID,0.100563,VALID,22.5908,VALID,6,VALID,0.457422,
2009-09-28, 02:21:04,VALID,1002.09,VALID,0,VALID,95.1169,VALID,0.100563,VALID,22.612,VALID,6,VALID,0.340234,
2009-09-28, 02:22:04,VALID,1002.07,VALID,0,VALID,95.1245,VALID,0,VALID,22.6509,VALID,6,VALID,0.137891,
2009-09-28, 02:23:04,VALID,1002.06,VALID,0,VALID,95.1398,VALID,0,VALID,22.6492,VALID,6,VALID,0.0515625,
2009-09-28, 02:24:04,VALID,1002.06,VALID,0,VALID,95.1093,VALID,0,VALID,22.6704,VALID,6,VALID,0,
2009-09-28, 02:25:04,VALID,1002.09,VALID,0,VALID,95.0787,VALID,0,VALID,22.5908,VALID,6,VALID,0.383203,
2009-09-28, 02:26:04,VALID,1002.1,VALID,0,VALID,94.9948,VALID,0,VALID,22.5925,VALID,6,VALID,0.345313,
2009-09-28, 02:27:04,VALID,1002.14,VALID,0,VALID,94.949,VALID,0,VALID,22.5731,VALID,6,VALID,0.145313,
2009-09-28, 02:28:04,VALID,1002.12,VALID,0,VALID,94.9033,VALID,0,VALID,22.5519,VALID,6,VALID,0.112891,
2009-09-28, 02:29:04,VALID,1002.14,VALID,0,VALID,94.8728,VALID,0,VALID,22.5325,VALID,6,VALID,0,
2009-09-28, 02:30:04,VALID,1002.13,VALID,0,VALID,94.8499,VALID,0,VALID,22.5342,VALID,6,VALID,0,
2009-09-28, 02:31:04,VALID,1002.13,VALID,0,VALID,94.827,VALID,0,VALID,22.5147,VALID,6,VALID,0,
2009-09-28, 02:32:04,VALID,1002.12,VALID,0,VALID,94.7965,VALID,0,VALID,22.4953,VALID,6,VALID,0,
2009-09-28, 02:33:04,VALID,1002.13,VALID,0,VALID,94.7736,VALID,0,VALID,22.4546,VALID,6,VALID,0,
2009-09-28, 02:34:04,VALID,1002.12,VALID,0,VALID,94.7812,VALID,0.100563,VALID,22.4953,VALID,6,VALID,0,
2009-09-28, 02:35:04,VALID,1002.14,VALID,0,VALID,94.7888,VALID,0,VALID,22.4758,VALID,6,VALID,0,
2009-09-28, 02:36:04,VALID,1002.14,VALID,0,VALID,94.7965,VALID,0,VALID,22.4563,VALID,6,VALID,0,
2009-09-28, 02:37:04,VALID,1002.16,VALID,0,VALID,94.827,VALID,0,VALID,22.4369,VALID,6,VALID,0,
2009-09-28, 02:38:04,VALID,1002.14,VALID,0,VALID,94.8194,VALID,0,VALID,22.4369,VALID,6,VALID,0,
2009-09-28, 02:39:04,VALID,1002.15,VALID,0,VALID,94.8346,VALID,0,VALID,22.4369,VALID,6,VALID,0,
2009-09-28, 02:40:04,VALID,1002.16,VALID,0,VALID,94.8194,VALID,0,VALID,22.398,VALID,6,VALID,0,
2009-09-28, 02:41:04,VALID,1002.15,VALID,0,VALID,94.827,VALID,0,VALID,22.398,VALID,6,VALID,0,
2009-09-28, 02:42:04,VALID,1002.16,VALID,0,VALID,94.8117,VALID,0,VALID,22.3574,VALID,6,VALID,0,
2009-09-28, 02:43:04,VALID,1002.18,VALID,0,VALID,94.8651,VALID,0,VALID,22.3963,VALID,6,VALID,0,
2009-09-28, 02:44:04,VALID,1002.19,VALID,0,VALID,94.9033,VALID,0,VALID,22.4174,VALID,6,VALID,0.414453,
2009-09-28, 02:45:04,VALID,1002.18,VALID,0,VALID,94.949,VALID,0.100563,VALID,22.4157,VALID,6,VALID,0.247656,
2009-09-28, 02:46:04,VALID,1002.2,VALID,0,VALID,94.9414,VALID,0,VALID,22.398,VALID,6,VALID,0.315625,
2009-09-28, 02:47:04,VALID,1002.24,VALID,0,VALID,94.9185,VALID,0.100563,VALID,22.3785,VALID,6,VALID,0.0496094,
2009-09-28, 02:48:04,VALID,1002.25,VALID,0,VALID,94.9185,VALID,0,VALID,22.3574,VALID,6,VALID,0,
2009-09-28, 02:49:04,VALID,1002.24,VALID,0,VALID,94.9109,VALID,0,VALID,22.3785,VALID,6,VALID,0,
2009-09-28, 02:50:04,VALID,1002.28,VALID,0,VALID,94.9796,VALID,0,VALID,22.398,VALID,6,VALID,0,
2009-09-28, 02:51:04,VALID,1002.29,VALID,0,VALID,95.0101,VALID,0,VALID,22.398,VALID,6,VALID,0,
2009-09-28, 02:52:04,VALID,1002.29,VALID,0,VALID,94.9719,VALID,0,VALID,22.3591,VALID,6,VALID,0.337891,
2009-09-28, 02:53:04,VALID,1002.3,VALID,0,VALID,94.9796,VALID,0.100563,VALID,22.3379,VALID,6,VALID,0.290234,
2009-09-28, 02:54:04,VALID,1002.33,VALID,0,VALID,95.0024,VALID,0.100563,VALID,22.3574,VALID,6,VALID,0.159766,
2009-09-28, 02:55:04,VALID,1002.33,VALID,0,VALID,95.033,VALID,0.100563,VALID,22.3574,VALID,6,VALID,0.371094,
2009-09-28, 02:56:04,VALID,1002.36,VALID,0,VALID,95.033,VALID,0,VALID,22.3785,VALID,6,VALID,0.387109,
2009-09-28, 02:57:04,VALID,1002.35,VALID,0,VALID,95.033,VALID,0,VALID,22.3591,VALID,6,VALID,0,
2009-09-28, 02:58:04,VALID,1002.35,VALID,0,VALID,95.033,VALID,0.100563,VALID,22.3379,VALID,6,VALID,0,
2009-09-28, 02:59:04,VALID,1002.34,VALID,0,VALID,95.0482,VALID,0,VALID,22.3591,VALID,6,VALID,0.0664063,
2009-09-28, 03:00:04,VALID,1002.37,VALID,0,VALID,95.0635,VALID,0,VALID,22.3591,VALID,6,VALID,0.0714844,
2009-09-28, 03:01:04,VALID,1002.39,VALID,0,VALID,95.0635,VALID,0.100563,VALID,22.3379,VALID,6,VALID,0.0128906,
2009-09-28, 03:02:04,VALID,1002.39,VALID,0,VALID,95.0635,VALID,0,VALID,22.299,VALID,6,VALID,0,
2009-09-28, 03:03:04,VALID,1002.41,VALID,0,VALID,95.033,VALID,0,VALID,22.3007,VALID,6,VALID,0.0015625,
2009-09-28, 03:04:04,VALID,1002.4,VALID,0,VALID,95.0101,VALID,0,VALID,22.2601,VALID,6,VALID,0.344531,
2009-09-28, 03:05:04,VALID,1002.38,VALID,0,VALID,95.0024,VALID,0.100563,VALID,22.2812,VALID,6,VALID,0.396484,
2009-09-28, 03:06:04,VALID,1002.39,VALID,0,VALID,94.9872,VALID,0,VALID,22.2407,VALID,6,VALID,0.340625,
2009-09-28, 03:07:04,VALID,1002.38,VALID,0,VALID,95.0101,VALID,0,VALID,22.2618,VALID,6,VALID,0.342969,
2009-09-28, 03:08:04,VALID,1002.38,VALID,0,VALID,95.094,VALID,0,VALID,22.3185,VALID,6,VALID,0.166406,
2009-09-28, 03:09:04,VALID,1002.4,VALID,0,VALID,95.1398,VALID,0,VALID,22.3379,VALID,6,VALID,0.496875,
2009-09-28, 03:10:04,VALID,1002.39,VALID,0,VALID,95.1016,VALID,0,VALID,22.3185,VALID,6,VALID,0.343359,
2009-09-28, 03:11:04,VALID,1002.37,VALID,0,VALID,95.1245,VALID,0.100563,VALID,22.3591,VALID,6,VALID,0.529688,
2009-09-28, 03:12:04,VALID,1002.38,VALID,0,VALID,95.0787,VALID,0,VALID,22.3202,VALID,6,VALID,0.315625,
2009-09-28, 03:13:04,VALID,1002.37,VALID,0,VALID,95.0558,VALID,0,VALID,22.3007,VALID,6,VALID,0.423047,
2009-09-28, 03:14:04,VALID,1002.38,VALID,0,VALID,95.0711,VALID,0,VALID,22.3202,VALID,6,VALID,0.311719,
2009-09-28, 03:15:04,VALID,1002.4,VALID,0,VALID,95.0711,VALID,0,VALID,22.2796,VALID,6,VALID,0.35,
2009-09-28, 03:16:04,VALID,1002.41,VALID,0,VALID,95.0558,VALID,0,VALID,22.3007,VALID,6,VALID,0.257813,
2009-09-28, 03:17:04,VALID,1002.4,VALID,0,VALID,95.0558,VALID,0,VALID,22.2796,VALID,6,VALID,0.283203,
2009-09-28, 03:18:04,VALID,1002.43,VALID,0,VALID,95.0711,VALID,0,VALID,22.3202,VALID,6,VALID,0.238672,
2009-09-28, 03:19:04,VALID,1002.43,VALID,0,VALID,95.094,VALID,0,VALID,22.299,VALID,6,VALID,0.195313,
2009-09-28, 03:20:04,VALID,1002.42,VALID,0,VALID,95.094,VALID,0,VALID,22.3007,VALID,6,VALID,0.0519531,
2009-09-28, 03:21:04,VALID,1002.43,VALID,0,VALID,95.1016,VALID,0,VALID,22.2796,VALID,6,VALID,0.151172,
2009-09-28, 03:22:04,VALID,1002.43,VALID,0,VALID,95.0864,VALID,0,VALID,22.2812,VALID,6,VALID,0.235547,
2009-09-28, 03:23:04,VALID,1002.5,VALID,0,VALID,95.0558,VALID,0,VALID,22.2618,VALID,6,VALID,0.562891,
2009-09-28, 03:24:04,VALID,1002.47,VALID,0,VALID,95.033,VALID,0,VALID,22.2423,VALID,6,VALID,0.475781,
2009-09-28, 03:25:04,VALID,1002.48,VALID,0,VALID,95.0024,VALID,0,VALID,22.2212,VALID,6,VALID,0.530859,
2009-09-28, 03:26:04,VALID,1002.48,VALID,0,VALID,95.0024,VALID,0,VALID,22.2034,VALID,6,VALID,0.292188,
2009-09-28, 03:27:04,VALID,1002.49,VALID,0,VALID,95.0558,VALID,0.100563,VALID,22.2423,VALID,6,VALID,0.307813,
2009-09-28, 03:28:04,VALID,1002.48,VALID,0,VALID,95.0787,VALID,0,VALID,22.2618,VALID,6,VALID,0.189844,
2009-09-28, 03:29:04,VALID,1002.49,VALID,0,VALID,95.0711,VALID,0,VALID,22.2618,VALID,6,VALID,0.186719,
2009-09-28, 03:30:04,VALID,1002.49,VALID,0,VALID,95.1093,VALID,0,VALID,22.2407,VALID,6,VALID,0.0246094,
2009-09-28, 03:31:04,VALID,1002.47,VALID,0,VALID,95.094,VALID,0,VALID,22.2618,VALID,6,VALID,0.142188,
2009-09-28, 03:32:04,VALID,1002.46,VALID,0,VALID,95.1245,VALID,0.100563,VALID,22.2618,VALID,6,VALID,0.242969,
2009-09-28, 03:33:04,VALID,1002.5,VALID,0,VALID,95.094,VALID,0.100563,VALID,22.2618,VALID,6,VALID,0.303516,
2009-09-28, 03:34:04,VALID,1002.5,VALID,0,VALID,95.0787,VALID,0.100563,VALID,22.2229,VALID,6,VALID,0.423438,
2009-09-28, 03:35:04,VALID,1002.51,VALID,0,VALID,95.0787,VALID,0,VALID,22.2017,VALID,6,VALID,0.336719,
2009-09-28, 03:36:04,VALID,1002.52,VALID,0,VALID,95.0482,VALID,0,VALID,22.2423,VALID,6,VALID,0.351953,
2009-09-28, 03:37:04,VALID,1002.53,VALID,0,VALID,95.1016,VALID,0,VALID,22.2618,VALID,6,VALID,0.40625,
2009-09-28, 03:38:04,VALID,1002.54,VALID,0,VALID,95.0635,VALID,0.100563,VALID,22.2423,VALID,6,VALID,0.196484,
2009-09-28, 03:39:04,VALID,1002.55,VALID,0,VALID,95.0177,VALID,0,VALID,22.244,VALID,6,VALID,0.320703,
2009-09-28, 03:40:04,VALID,1002.54,VALID,0,VALID,94.9948,VALID,0,VALID,22.2034,VALID,6,VALID,0.265234,
2009-09-28, 03:41:04,VALID,1002.55,VALID,0,VALID,94.9567,VALID,0,VALID,22.2246,VALID,6,VALID,0.325391,
2009-09-28, 03:42:04,VALID,1002.54,VALID,0,VALID,94.9262,VALID,0,VALID,22.1628,VALID,6,VALID,0.279687,
2009-09-28, 03:43:04,VALID,1002.52,VALID,0,VALID,94.9109,VALID,0,VALID,22.1645,VALID,6,VALID,0.237891,
2009-09-28, 03:44:04,VALID,1002.57,VALID,0,VALID,94.9033,VALID,0,VALID,22.1628,VALID,6,VALID,0.444141,
2009-09-28, 03:45:04,VALID,1002.57,VALID,0,VALID,94.9338,VALID,0,VALID,22.184,VALID,6,VALID,0.388672,
2009-09-28, 03:46:04,VALID,1002.57,VALID,0,VALID,94.9643,VALID,0,VALID,22.1823,VALID,6,VALID,0.294531,
2009-09-28, 03:47:04,VALID,1002.58,VALID,0,VALID,94.9948,VALID,0,VALID,22.2229,VALID,6,VALID,0.154687,